| time (UTC) | temp F | wind direction | speed MPH | gust MPH | rain 1hr in | rain 24hr in | rain mn in | humidity % | barometer mb |
| 20260505183502 | 81 | 158 | 18.0 | 22.0 | 0.00 | 0.00 | 0.00 | 42 | 1015.0 |
| 20260505183002 | 81 | 177 | 12.0 | 22.0 | 0.00 | 0.00 | 0.00 | 42 | 1015.1 |
| 20260505182500 | 81 | 226 | 17.0 | 21.0 | 0.00 | 0.00 | 0.00 | 43 | 1015.1 |
| 20260505182002 | 81 | 175 | 12.0 | 23.0 | 0.00 | 0.00 | 0.00 | 44 | 1015.2 |
| 20260505181502 | 81 | 178 | 10.0 | 23.0 | 0.00 | 0.00 | 0.00 | 45 | 1015.2 |
| 20260505181003 | 81 | 202 | 10.0 | 18.0 | 0.00 | 0.00 | 0.00 | 46 | 1015.1 |
| 20260505180500 | 81 | 238 | 12.0 | 20.0 | 0.00 | 0.00 | 0.00 | 44 | 1015.1 |
| 20260505180006 | 81 | 163 | 12.0 | 20.0 | 0.00 | 0.00 | 0.00 | 42 | 1015.2 |
| 20260505175502 | 81 | 171 | 6.0 | 19.0 | 0.00 | 0.00 | 0.00 | 43 | 1015.3 |
| 20260505175002 | 81 | 226 | 8.0 | 23.0 | 0.00 | 0.00 | 0.00 | 43 | 1015.2 |
| 20260505174502 | 81 | 176 | 8.0 | 23.0 | 0.00 | 0.00 | 0.00 | 43 | 1015.3 |
| 20260505174002 | 81 | 257 | 5.0 | 14.0 | 0.00 | 0.00 | 0.00 | 44 | 1015.3 |
| 20260505173502 | 81 | 248 | 8.0 | 21.0 | 0.00 | 0.00 | 0.00 | 45 | 1015.3 |
| 20260505173002 | 80 | 198 | 11.0 | 24.0 | 0.00 | 0.00 | 0.00 | 46 | 1015.4 |
| 20260505172502 | 81 | 183 | 15.0 | 24.0 | 0.00 | 0.00 | 0.00 | 45 | 1015.6 |
| 20260505172002 | 80 | 184 | 7.0 | 15.0 | 0.00 | 0.00 | 0.00 | 45 | 1015.6 |
| 20260505171502 | 80 | 181 | 8.0 | 17.0 | 0.00 | 0.00 | 0.00 | 45 | 1015.6 |
| 20260505171002 | 80 | 197 | 4.0 | 18.0 | 0.00 | 0.00 | 0.00 | 44 | 1015.6 |
| 20260505170502 | 80 | 175 | 12.0 | 18.0 | 0.00 | 0.00 | 0.00 | 46 | 1015.7 |
| 20260505170006 | 80 | 176 | 11.0 | 16.0 | 0.00 | 0.00 | 0.00 | 45 | 1015.8 |
| 20260505165502 | 80 | 161 | 5.0 | 18.0 | 0.00 | 0.00 | 0.00 | 51 | 1015.7 |
| 20260505165002 | 80 | 221 | 11.0 | 18.0 | 0.00 | 0.00 | 0.00 | 46 | 1015.8 |
| 20260505164502 | 79 | 227 | 7.0 | 18.0 | 0.00 | 0.00 | 0.00 | 47 | 1015.8 |
| 20260505164002 | 79 | 143 | 11.0 | 16.0 | 0.00 | 0.00 | 0.00 | 47 | 1015.9 |
| 20260505163502 | 79 | 182 | 13.0 | 17.0 | 0.00 | 0.00 | 0.00 | 50 | 1016.0 |
| 20260505163002 | 78 | 209 | 8.0 | 18.0 | 0.00 | 0.00 | 0.00 | 50 | 1015.9 |
| 20260505162502 | 78 | 215 | 9.0 | 20.0 | 0.00 | 0.00 | 0.00 | 49 | 1016.0 |
| 20260505162002 | 79 | 153 | 12.0 | 16.0 | 0.00 | 0.00 | 0.00 | 49 | 1016.1 |
| 20260505161502 | 78 | 207 | 14.0 | 22.0 | 0.00 | 0.00 | 0.00 | 50 | 1016.1 |
| 20260505161002 | 78 | 163 | 12.0 | 22.0 | 0.00 | 0.00 | 0.00 | 49 | 1016.2 |
| 20260505160502 | 78 | 216 | 6.0 | 17.0 | 0.00 | 0.00 | 0.00 | 51 | 1016.3 |
| 20260505153002 | 77 | 195 | 13.0 | 15.0 | 0.00 | 0.00 | 0.00 | 53 | 1016.3 |
| 20260505152502 | 77 | 224 | 2.0 | 14.0 | 0.00 | 0.00 | 0.00 | 53 | 1016.4 |
| 20260505152002 | 77 | 197 | 8.0 | 15.0 | 0.00 | 0.00 | 0.00 | 55 | 1016.3 |
| 20260505151500 | 76 | 222 | 2.0 | 15.0 | 0.00 | 0.00 | 0.00 | 55 | 1016.3 |
| 20260505151002 | 76 | 215 | 5.0 | 12.0 | 0.00 | 0.00 | 0.00 | 54 | 1016.3 |
| 20260505150502 | 75 | 214 | 6.0 | 14.0 | 0.00 | 0.00 | 0.00 | 56 | 1016.4 |
| 20260505140502 | 72 | 215 | 13.0 | 16.0 | 0.00 | 0.00 | 0.00 | 61 | 1016.6 |
| 20260505125002 | 67 | 300 | 4.0 | 13.0 | 0.00 | 0.00 | 0.00 | 68 | 1016.6 |
| 20260505124502 | 66 | 191 | 4.0 | 10.0 | 0.00 | 0.00 | 0.00 | 68 | 1016.6 |
| 20260505124003 | 66 | 238 | 5.0 | 16.0 | 0.00 | 0.00 | 0.00 | 70 | 1016.6 |
| 20260505123502 | 65 | 225 | 12.0 | 16.0 | 0.00 | 0.00 | 0.00 | 71 | 1016.6 |
| 20260505123003 | 64 | 223 | 5.0 | 12.0 | 0.00 | 0.00 | 0.00 | 72 | 1016.6 |
| 20260505122502 | 64 | 227 | 4.0 | 13.0 | 0.00 | 0.00 | 0.00 | 73 | 1016.6 |
| 20260505122003 | 63 | 202 | 6.0 | 12.0 | 0.00 | 0.00 | 0.00 | 73 | 1016.6 |
| 20260505121501 | 63 | 231 | 4.0 | 12.0 | 0.00 | 0.00 | 0.00 | 74 | 1016.6 |
| 20260505121003 | 62 | 249 | 5.0 | 12.0 | 0.00 | 0.00 | 0.00 | 75 | 1016.5 |
| 20260505120502 | 62 | 188 | 11.0 | 12.0 | 0.00 | 0.00 | 0.00 | 76 | 1016.5 |
| 20260505120002 | 61 | 215 | 9.0 | 13.0 | 0.00 | 0.00 | 0.00 | 77 | 1016.5 |
| 20260505115500 | 61 | 201 | 10.0 | 12.0 | 0.00 | 0.00 | 0.00 | 77 | 1016.5 |
| 20260505115001 | 61 | 231 | 7.0 | 12.0 | 0.00 | 0.00 | 0.00 | 78 | 1016.6 |
| 20260505114502 | 60 | 211 | 10.0 | 12.0 | 0.00 | 0.00 | 0.00 | 78 | 1016.6 |
| 20260505114002 | 60 | 201 | 6.0 | 12.0 | 0.00 | 0.00 | 0.00 | 79 | 1016.5 |
| 20260505113502 | 60 | 210 | 6.0 | 12.0 | 0.00 | 0.00 | 0.00 | 79 | 1016.5 |
| 20260505113002 | 59 | 211 | 3.0 | 11.0 | 0.00 | 0.00 | 0.00 | 80 | 1016.6 |
| 20260505112500 | 59 | 204 | 3.0 | 11.0 | 0.00 | 0.00 | 0.00 | 80 | 1016.5 |
| 20260505112002 | 59 | 198 | 4.0 | 10.0 | 0.00 | 0.00 | 0.00 | 80 | 1016.4 |
| 20260505111502 | 58 | 210 | 3.0 | 10.0 | 0.00 | 0.00 | 0.00 | 81 | 1016.4 |
| 20260505111002 | 58 | 186 | 7.0 | 9.0 | 0.00 | 0.00 | 0.00 | 81 | 1016.3 |
| 20260505110500 | 58 | 202 | 7.0 | 9.0 | 0.00 | 0.00 | 0.00 | 82 | 1016.3 |
| 20260505102002 | 57 | 194 | 4.0 | 8.0 | 0.00 | 0.00 | 0.00 | 82 | 1015.9 |
| 20260505101502 | 57 | 190 | 2.0 | 8.0 | 0.00 | 0.00 | 0.00 | 82 | 1015.8 |
| 20260505101002 | 57 | 192 | 3.0 | 8.0 | 0.00 | 0.00 | 0.00 | 82 | 1015.7 |
| 20260505100502 | 57 | 229 | 4.0 | 8.0 | 0.00 | 0.00 | 0.00 | 82 | 1015.6 |
| 20260505100004 | 57 | 200 | 1.0 | 8.0 | 0.00 | 0.00 | 0.00 | 81 | 1015.6 |
| 20260505095502 | 57 | 220 | 4.0 | 8.0 | 0.00 | 0.00 | 0.00 | 81 | 1015.6 |
| 20260505095002 | 57 | 207 | 4.0 | 11.0 | 0.00 | 0.00 | 0.00 | 81 | 1015.5 |
| 20260505094502 | 57 | 196 | 3.0 | 11.0 | 0.00 | 0.00 | 0.00 | 81 | 1015.4 |
| 20260505094002 | 57 | 211 | 4.0 | 10.0 | 0.00 | 0.00 | 0.00 | 81 | 1015.4 |
| 20260505093502 | 57 | 203 | 3.0 | 10.0 | 0.00 | 0.00 | 0.00 | 80 | 1015.3 |
| 20260505093003 | 57 | 199 | 1.0 | 9.0 | 0.00 | 0.00 | 0.00 | 80 | 1015.3 |
| 20260505092502 | 58 | 201 | 7.0 | 10.0 | 0.00 | 0.00 | 0.00 | 80 | 1015.3 |
| 20260505092002 | 58 | 187 | 6.0 | 10.0 | 0.00 | 0.00 | 0.00 | 80 | 1015.3 |
| 20260505091502 | 58 | 214 | 9.0 | 11.0 | 0.00 | 0.00 | 0.00 | 79 | 1015.3 |
| 20260505091002 | 58 | 234 | 3.0 | 9.0 | 0.00 | 0.00 | 0.00 | 79 | 1015.2 |
| 20260505090502 | 58 | 200 | 5.0 | 9.0 | 0.00 | 0.00 | 0.00 | 79 | 1015.2 |
| 20260505090002 | 58 | 203 | 3.0 | 11.0 | 0.00 | 0.00 | 0.00 | 78 | 1015.2 |
| 20260505085502 | 58 | 216 | 6.0 | 11.0 | 0.00 | 0.00 | 0.00 | 78 | 1015.2 |
| 20260505085002 | 58 | 202 | 6.0 | 11.0 | 0.00 | 0.00 | 0.00 | 77 | 1015.2 |
| 20260505084500 | 59 | 204 | 5.0 | 11.0 | 0.00 | 0.00 | 0.00 | 77 | 1015.1 |
| 20260505084002 | 59 | 217 | 7.0 | 9.0 | 0.00 | 0.00 | 0.00 | 77 | 1015.1 |
| 20260505083500 | 59 | 223 | 7.0 | 10.0 | 0.00 | 0.00 | 0.00 | 77 | 1015.1 |
| 20260505083002 | 59 | 211 | 2.0 | 10.0 | 0.00 | 0.00 | 0.00 | 76 | 1015.1 |
| 20260505082500 | 59 | 175 | 4.0 | 10.0 | 0.00 | 0.00 | 0.00 | 76 | 1015.1 |
| 20260505082002 | 59 | 218 | 2.0 | 9.0 | 0.00 | 0.00 | 0.00 | 76 | 1015.2 |
| 20260505081500 | 59 | 215 | 5.0 | 8.0 | 0.00 | 0.00 | 0.00 | 75 | 1015.2 |
| 20260505081002 | 59 | 199 | 5.0 | 8.0 | 0.00 | 0.00 | 0.00 | 75 | 1015.1 |
| 20260505080502 | 59 | 234 | 2.0 | 9.0 | 0.00 | 0.00 | 0.00 | 75 | 1015.1 |
| 20260505080001 | 60 | 196 | 3.0 | 10.0 | 0.00 | 0.00 | 0.00 | 74 | 1015.1 |
| 20260505075459 | 60 | 201 | 6.0 | 10.0 | 0.00 | 0.00 | 0.00 | 74 | 1015.0 |
| 20260505075002 | 60 | 238 | 3.0 | 8.0 | 0.00 | 0.00 | 0.00 | 74 | 1015.0 |
| 20260505074502 | 60 | 190 | 3.0 | 8.0 | 0.00 | 0.00 | 0.00 | 74 | 1015.0 |
| 20260505074002 | 60 | 175 | 3.0 | 10.0 | 0.00 | 0.00 | 0.00 | 73 | 1014.9 |
| 20260505073500 | 60 | 214 | 4.0 | 10.0 | 0.00 | 0.00 | 0.00 | 73 | 1014.8 |
| 20260505073002 | 60 | 179 | 5.0 | 10.0 | 0.00 | 0.00 | 0.00 | 73 | 1014.8 |
| 20260505072500 | 60 | 190 | 2.0 | 9.0 | 0.00 | 0.00 | 0.00 | 73 | 1014.7 |
| 20260505072002 | 60 | 227 | 2.0 | 9.0 | 0.00 | 0.00 | 0.00 | 73 | 1014.7 |
| 20260505071500 | 61 | 234 | 4.0 | 9.0 | 0.00 | 0.00 | 0.00 | 73 | 1014.7 |
| 20260505071002 | 61 | 205 | 4.0 | 9.0 | 0.00 | 0.00 | 0.00 | 72 | 1014.6 |
| 20260505070500 | 61 | 206 | 4.0 | 9.0 | 0.00 | 0.00 | 0.00 | 72 | 1014.6 |
| 20260505070003 | 61 | 195 | 3.0 | 9.0 | 0.00 | 0.00 | 0.00 | 72 | 1014.6 |
| 20260505065500 | 61 | 212 | 6.0 | 10.0 | 0.00 | 0.00 | 0.00 | 72 | 1014.6 |
| 20260505065002 | 61 | 227 | 4.0 | 11.0 | 0.00 | 0.00 | 0.00 | 71 | 1014.6 |
| 20260505064459 | 61 | 215 | 6.0 | 11.0 | 0.00 | 0.00 | 0.00 | 71 | 1014.7 |
| 20260505064001 | 61 | 211 | 8.0 | 11.0 | 0.00 | 0.00 | 0.00 | 71 | 1014.7 |
| 20260505063459 | 61 | 221 | 4.0 | 11.0 | 0.00 | 0.00 | 0.00 | 71 | 1014.8 |
| 20260505063001 | 61 | 188 | 3.0 | 10.0 | 0.00 | 0.00 | 0.00 | 70 | 1014.8 |
| 20260505062502 | 61 | 196 | 6.0 | 10.0 | 0.00 | 0.00 | 0.00 | 70 | 1014.8 |
| 20260505062002 | 62 | 206 | 6.0 | 10.0 | 0.00 | 0.00 | 0.00 | 70 | 1014.9 |
| 20260505061459 | 62 | 239 | 2.0 | 14.0 | 0.00 | 0.00 | 0.00 | 70 | 1014.9 |
| 20260505061002 | 62 | 211 | 6.0 | 14.0 | 0.00 | 0.00 | 0.00 | 70 | 1014.8 |
| 20260505060502 | 62 | 205 | 9.0 | 11.0 | 0.00 | 0.00 | 0.00 | 70 | 1014.9 |
| 20260505060002 | 62 | 180 | 4.0 | 11.0 | 0.00 | 0.00 | 0.00 | 69 | 1014.9 |
| 20260505055500 | 62 | 220 | 5.0 | 10.0 | 0.00 | 0.00 | 0.00 | 69 | 1015.0 |
| 20260505055002 | 62 | 183 | 6.0 | 11.0 | 0.00 | 0.00 | 0.00 | 69 | 1015.0 |
| 20260505054500 | 62 | 194 | 3.0 | 10.0 | 0.00 | 0.00 | 0.00 | 69 | 1014.9 |
| 20260505054002 | 62 | 194 | 3.0 | 10.0 | 0.00 | 0.00 | 0.00 | 69 | 1014.9 |
| 20260505053500 | 62 | 199 | 7.0 | 13.0 | 0.00 | 0.00 | 0.00 | 69 | 1014.9 |
| 20260505053002 | 62 | 195 | 7.0 | 10.0 | 0.00 | 0.00 | 0.00 | 69 | 1015.0 |
| 20260505052459 | 63 | 220 | 7.0 | 10.0 | 0.00 | 0.00 | 0.00 | 69 | 1014.9 |
| 20260505052002 | 63 | 220 | 4.0 | 11.0 | 0.00 | 0.00 | 0.00 | 69 | 1015.0 |
| 20260505051500 | 63 | 213 | 10.0 | 11.0 | 0.00 | 0.00 | 0.00 | 68 | 1015.0 |
| 20260505051002 | 63 | 199 | 4.0 | 14.0 | 0.00 | 0.00 | 0.00 | 68 | 1015.0 |
| 20260505050459 | 63 | 220 | 6.0 | 18.0 | 0.00 | 0.00 | 0.00 | 68 | 1015.1 |
| 20260505041502 | 63 | 205 | 5.0 | 12.0 | 0.00 | 0.00 | 0.00 | 67 | 1015.1 |
| 20260505041002 | 64 | 251 | 9.0 | 12.0 | 0.00 | 0.00 | 0.00 | 67 | 1015.0 |
| 20260505040502 | 64 | 242 | 9.0 | 11.0 | 0.00 | 0.00 | 0.00 | 67 | 1015.0 |
| 20260505040008 | 64 | 228 | 8.0 | 15.0 | 0.00 | 0.00 | 0.00 | 67 | 1015.0 |
| 20260505035503 | 64 | 215 | 4.0 | 15.0 | 0.00 | 0.00 | 0.00 | 67 | 1015.0 |
| 20260505035004 | 64 | 196 | 7.0 | 15.0 | 0.00 | 0.00 | 0.00 | 67 | 1014.9 |
| 20260505034502 | 64 | 205 | 8.0 | 16.0 | 0.00 | 0.00 | 0.00 | 66 | 1014.9 |
| 20260505034003 | 64 | 188 | 9.0 | 16.0 | 0.00 | 0.00 | 0.00 | 66 | 1014.8 |
| 20260505033503 | 64 | 188 | 9.0 | 19.0 | 0.00 | 0.00 | 0.00 | 65 | 1014.8 |
| 20260505033003 | 64 | 209 | 8.0 | 19.0 | 0.00 | 0.00 | 0.00 | 65 | 1014.8 |
| 20260505032503 | 64 | 182 | 3.0 | 18.0 | 0.00 | 0.00 | 0.00 | 65 | 1014.8 |
| 20260505032003 | 64 | 212 | 13.0 | 18.0 | 0.00 | 0.00 | 0.00 | 65 | 1014.8 |
| 20260505031502 | 65 | 221 | 7.0 | 18.0 | 0.00 | 0.00 | 0.00 | 65 | 1014.8 |
| 20260505031004 | 65 | 222 | 10.0 | 13.0 | 0.00 | 0.00 | 0.00 | 65 | 1014.7 |
| 20260505030502 | 65 | 211 | 8.0 | 12.0 | 0.00 | 0.00 | 0.00 | 65 | 1014.8 |
| 20260505030005 | 65 | 207 | 7.0 | 12.0 | 0.00 | 0.00 | 0.00 | 66 | 1014.8 |
| 20260505025502 | 65 | 163 | 8.0 | 15.0 | 0.00 | 0.00 | 0.00 | 66 | 1014.9 |
| 20260505025003 | 65 | 186 | 9.0 | 15.0 | 0.00 | 0.00 | 0.00 | 66 | 1014.8 |
| 20260505024502 | 65 | 206 | 10.0 | 17.0 | 0.00 | 0.00 | 0.00 | 66 | 1014.8 |
| 20260505024004 | 65 | 218 | 13.0 | 17.0 | 0.00 | 0.00 | 0.00 | 66 | 1014.7 |
| 20260505023503 | 65 | 209 | 13.0 | 16.0 | 0.00 | 0.00 | 0.00 | 67 | 1014.7 |
| 20260505023003 | 65 | 215 | 5.0 | 16.0 | 0.00 | 0.00 | 0.00 | 66 | 1014.7 |
| 20260505022502 | 65 | 168 | 16.0 | 17.0 | 0.00 | 0.00 | 0.00 | 67 | 1014.7 |
| 20260505022006 | 65 | 182 | 4.0 | 14.0 | 0.00 | 0.00 | 0.00 | 67 | 1014.7 |
| 20260505021503 | 66 | 215 | 9.0 | 16.0 | 0.00 | 0.00 | 0.00 | 67 | 1014.8 |
| 20260505021008 | 65 | 200 | 9.0 | 13.0 | 0.00 | 0.00 | 0.00 | 67 | 1014.9 |
| 20260505020502 | 66 | 201 | 6.0 | 14.0 | 0.00 | 0.00 | 0.00 | 67 | 1014.9 |
| 20260505020007 | 66 | 213 | 7.0 | 14.0 | 0.00 | 0.00 | 0.00 | 67 | 1015.0 |
| 20260505015502 | 66 | 238 | 14.0 | 14.0 | 0.00 | 0.00 | 0.00 | 67 | 1014.9 |
| 20260505015010 | 66 | 234 | 4.0 | 15.0 | 0.00 | 0.00 | 0.00 | 67 | 1014.9 |
| 20260505014502 | 66 | 192 | 9.0 | 18.0 | 0.00 | 0.00 | 0.00 | 67 | 1014.8 |
| 20260505014005 | 66 | 213 | 7.0 | 18.0 | 0.00 | 0.00 | 0.00 | 67 | 1014.8 |
| 20260505013503 | 66 | 173 | 12.0 | 15.0 | 0.00 | 0.00 | 0.00 | 67 | 1014.7 |
| 20260505013006 | 66 | 209 | 7.0 | 17.0 | 0.00 | 0.00 | 0.00 | 66 | 1014.5 |
| 20260505012502 | 66 | 189 | 10.0 | 17.0 | 0.00 | 0.00 | 0.00 | 66 | 1014.5 |
| 20260505012006 | 66 | 210 | 8.0 | 14.0 | 0.00 | 0.00 | 0.00 | 66 | 1014.4 |
| 20260505011502 | 66 | 207 | 3.0 | 18.0 | 0.00 | 0.00 | 0.00 | 67 | 1014.3 |
| 20260505011006 | 66 | 186 | 12.0 | 14.0 | 0.00 | 0.00 | 0.00 | 67 | 1014.2 |
| 20260505010502 | 66 | 183 | 11.0 | 14.0 | 0.00 | 0.00 | 0.00 | 67 | 1014.1 |
| 20260505010007 | 66 | 146 | 6.0 | 15.0 | 0.00 | 0.00 | 0.00 | 67 | 1014.1 |
| 20260505005502 | 66 | 182 | 10.0 | 15.0 | 0.00 | 0.00 | 0.00 | 66 | 1014.1 |
| 20260505005005 | 67 | 189 | 8.0 | 12.0 | 0.00 | 0.00 | 0.00 | 66 | 1014.0 |
| 20260505004502 | 67 | 168 | 5.0 | 10.0 | 0.00 | 0.00 | 0.00 | 66 | 1013.9 |
| 20260505004004 | 67 | 202 | 4.0 | 15.0 | 0.00 | 0.00 | 0.00 | 66 | 1013.9 |
| 20260505003502 | 67 | 199 | 6.0 | 15.0 | 0.00 | 0.00 | 0.00 | 66 | 1013.8 |
| 20260505003006 | 67 | 209 | 7.0 | 18.0 | 0.00 | 0.00 | 0.00 | 65 | 1013.8 |
| 20260505002503 | 67 | 176 | 8.0 | 18.0 | 0.00 | 0.00 | 0.00 | 65 | 1013.8 |
| 20260505002007 | 67 | 174 | 8.0 | 14.0 | 0.00 | 0.00 | 0.00 | 65 | 1013.7 |
| 20260505001503 | 68 | 204 | 7.0 | 17.0 | 0.00 | 0.00 | 0.00 | 64 | 1013.6 |
| 20260505001004 | 68 | 239 | 5.0 | 17.0 | 0.00 | 0.00 | 0.00 | 64 | 1013.7 |
| 20260505000502 | 68 | 168 | 11.0 | 15.0 | 0.00 | 0.00 | 0.00 | 64 | 1013.6 |
| 20260505000007 | 68 | 160 | 4.0 | 17.0 | 0.00 | 0.00 | 0.00 | 63 | 1013.5 |
| 20260504235502 | 68 | 223 | 5.0 | 17.0 | 0.00 | 0.00 | 0.00 | 63 | 1013.5 |
| 20260504235007 | 69 | 128 | 8.0 | 18.0 | 0.00 | 0.00 | 0.00 | 62 | 1013.4 |
| 20260504234502 | 69 | 173 | 10.0 | 20.0 | 0.00 | 0.00 | 0.00 | 62 | 1013.4 |
| 20260504234006 | 69 | 200 | 5.0 | 20.0 | 0.00 | 0.00 | 0.00 | 62 | 1013.4 |
| 20260504233502 | 69 | 208 | 9.0 | 18.0 | 0.00 | 0.00 | 0.00 | 62 | 1013.3 |
| 20260504233002 | 69 | 192 | 14.0 | 19.0 | 0.00 | 0.00 | 0.00 | 62 | 1013.1 |
| 20260504232502 | 69 | 195 | 9.0 | 19.0 | 0.00 | 0.00 | 0.00 | 62 | 1013.1 |
| 20260504232002 | 70 | 207 | 7.0 | 17.0 | 0.00 | 0.00 | 0.00 | 62 | 1013.1 |
| 20260504231502 | 70 | 178 | 10.0 | 17.0 | 0.00 | 0.00 | 0.00 | 61 | 1012.9 |
| 20260504231002 | 70 | 184 | 6.0 | 17.0 | 0.00 | 0.00 | 0.00 | 61 | 1013.0 |
| 20260504230502 | 71 | 159 | 10.0 | 19.0 | 0.00 | 0.00 | 0.00 | 60 | 1013.0 |
| 20260504230005 | 71 | 155 | 4.0 | 19.0 | 0.00 | 0.00 | 0.00 | 60 | 1013.0 |
| 20260504225502 | 71 | 180 | 18.0 | 19.0 | 0.00 | 0.00 | 0.00 | 59 | 1012.8 |
| 20260504225003 | 71 | 194 | 9.0 | 17.0 | 0.00 | 0.00 | 0.00 | 60 | 1012.8 |
| 20260504224502 | 72 | 161 | 6.0 | 17.0 | 0.00 | 0.00 | 0.00 | 59 | 1012.8 |
| 20260504224003 | 72 | 205 | 9.0 | 19.0 | 0.00 | 0.00 | 0.00 | 59 | 1012.7 |
| 20260504223502 | 72 | 207 | 11.0 | 19.0 | 0.00 | 0.00 | 0.00 | 59 | 1012.7 |
| 20260504223002 | 72 | 159 | 8.0 | 20.0 | 0.00 | 0.00 | 0.00 | 59 | 1012.7 |
| 20260504222502 | 72 | 198 | 12.0 | 20.0 | 0.00 | 0.00 | 0.00 | 57 | 1012.6 |
| 20260504222002 | 73 | 195 | 9.0 | 22.0 | 0.00 | 0.00 | 0.00 | 55 | 1012.7 |
| 20260504221502 | 75 | 200 | 13.0 | 21.0 | 0.00 | 0.00 | 0.00 | 48 | 1012.6 |
| 20260504221002 | 75 | 225 | 8.0 | 21.0 | 0.00 | 0.00 | 0.00 | 40 | 1012.5 |
| 20260504220502 | 76 | 202 | 5.0 | 18.0 | 0.00 | 0.00 | 0.00 | 40 | 1012.5 |
| 20260504220007 | 76 | 211 | 7.0 | 18.0 | 0.00 | 0.00 | 0.00 | 40 | 1012.5 |
| 20260504215502 | 76 | 217 | 5.0 | 19.0 | 0.00 | 0.00 | 0.00 | 40 | 1012.6 |
| 20260504215003 | 75 | 227 | 13.0 | 25.0 | 0.00 | 0.00 | 0.00 | 40 | 1012.5 |
| 20260504214502 | 76 | 222 | 21.0 | 25.0 | 0.00 | 0.00 | 0.00 | 39 | 1012.6 |
| 20260504214004 | 76 | 297 | 9.0 | 21.0 | 0.00 | 0.00 | 0.00 | 39 | 1012.6 |
| 20260504213503 | 76 | 192 | 10.0 | 21.0 | 0.00 | 0.00 | 0.00 | 39 | 1012.7 |
| 20260504213003 | 76 | 196 | 7.0 | 19.0 | 0.00 | 0.00 | 0.00 | 39 | 1012.6 |
| 20260504212503 | 76 | 202 | 5.0 | 19.0 | 0.00 | 0.00 | 0.00 | 40 | 1012.7 |
| 20260504212004 | 76 | 217 | 15.0 | 19.0 | 0.00 | 0.00 | 0.00 | 39 | 1012.7 |
| 20260504211502 | 76 | 191 | 5.0 | 12.0 | 0.00 | 0.00 | 0.00 | 39 | 1012.7 |
| 20260504211005 | 76 | 229 | 8.0 | 16.0 | 0.00 | 0.00 | 0.00 | 39 | 1012.8 |
| 20260504210503 | 76 | 176 | 8.0 | 17.0 | 0.00 | 0.00 | 0.00 | 39 | 1012.8 |
| 20260504210005 | 76 | 220 | 13.0 | 15.0 | 0.00 | 0.00 | 0.00 | 39 | 1012.8 |
| 20260504205502 | 76 | 209 | 9.0 | 19.0 | 0.00 | 0.00 | 0.00 | 38 | 1012.7 |
| 20260504205003 | 76 | 157 | 5.0 | 19.0 | 0.00 | 0.00 | 0.00 | 39 | 1012.8 |
| 20260504204502 | 76 | 223 | 11.0 | 21.0 | 0.00 | 0.00 | 0.00 | 40 | 1012.8 |
| 20260504204002 | 76 | 196 | 3.0 | 21.0 | 0.00 | 0.00 | 0.00 | 41 | 1013.0 |
| 20260504203502 | 76 | 207 | 8.0 | 14.0 | 0.00 | 0.00 | 0.00 | 40 | 1012.8 |
| 20260504203002 | 77 | 189 | 6.0 | 18.0 | 0.00 | 0.00 | 0.00 | 39 | 1012.9 |
| 20260504202502 | 77 | 190 | 9.0 | 18.0 | 0.00 | 0.00 | 0.00 | 40 | 1013.0 |
| 20260504202002 | 77 | 207 | 9.0 | 21.0 | 0.00 | 0.00 | 0.00 | 41 | 1012.9 |
| 20260504201502 | 77 | 239 | 8.0 | 21.0 | 0.00 | 0.00 | 0.00 | 41 | 1013.0 |
| 20260504201003 | 77 | 196 | 16.0 | 16.0 | 0.00 | 0.00 | 0.00 | 40 | 1012.8 |
| 20260504200502 | 77 | 176 | 10.0 | 20.0 | 0.00 | 0.00 | 0.00 | 40 | 1013.1 |
| 20260504200005 | 77 | 215 | 10.0 | 14.0 | 0.00 | 0.00 | 0.00 | 39 | 1013.1 |
| 20260504195502 | 77 | 215 | 8.0 | 19.0 | 0.00 | 0.00 | 0.00 | 40 | 1013.0 |
| 20260504195002 | 76 | 200 | 3.0 | 19.0 | 0.00 | 0.00 | 0.00 | 40 | 1013.2 |
| 20260504194502 | 76 | 295 | 7.0 | 24.0 | 0.00 | 0.00 | 0.00 | 41 | 1013.3 |
| 20260504194002 | 77 | 175 | 15.0 | 24.0 | 0.00 | 0.00 | 0.00 | 41 | 1013.3 |
| 20260504193502 | 77 | 196 | 7.0 | 21.0 | 0.00 | 0.00 | 0.00 | 41 | 1013.3 |
| 20260504193002 | 77 | 182 | 9.0 | 17.0 | 0.00 | 0.00 | 0.00 | 41 | 1013.4 |
| 20260504192502 | 76 | 209 | 7.0 | 23.0 | 0.00 | 0.00 | 0.00 | 44 | 1013.5 |
| 20260504192002 | 76 | 224 | 13.0 | 23.0 | 0.00 | 0.00 | 0.00 | 43 | 1013.5 |
| 20260504191502 | 76 | 166 | 16.0 | 18.0 | 0.00 | 0.00 | 0.00 | 43 | 1013.6 |
| 20260504191002 | 76 | 174 | 8.0 | 19.0 | 0.00 | 0.00 | 0.00 | 43 | 1013.7 |
| 20260504190502 | 76 | 208 | 4.0 | 19.0 | 0.00 | 0.00 | 0.00 | 44 | 1013.8 |
| 20260504190002 | 75 | 178 | 14.0 | 14.0 | 0.00 | 0.00 | 0.00 | 45 | 1013.8 |
| 20260504185502 | 75 | 220 | 5.0 | 15.0 | 0.00 | 0.00 | 0.00 | 44 | 1013.9 |
| 20260504185002 | 77 | 205 | 4.0 | 17.0 | 0.00 | 0.00 | 0.00 | 42 | 1014.0 |
| 20260504184502 | 77 | 221 | 10.0 | 16.0 | 0.00 | 0.00 | 0.00 | 42 | 1014.0 |
| 20260504184002 | 76 | 227 | 4.0 | 14.0 | 0.00 | 0.00 | 0.00 | 43 | 1014.2 |